• In Portugal
  • List of Countries
  • For 7 days
  • Water Temperature
  • Satellite Maps
  • Weather Map
  • Weather Widgets
  • user-avatar
    Login

    Hourly Weather Antalya

    Today, 16 December, Saturday

    Time Temperature Precipitation Wind Pressure Humidity
    00:00 +14°C° 0 mm 1 mps 760 mmHg 85%
    01:00 +14°C° 0 mm 1 mps 760 mmHg 85%
    02:00 +14°C° 0 mm 1 mps 760 mmHg 86%
    03:00 +14°C° 0 mm 1 mps 760 mmHg 86%
    04:00 +14°C° 0 mm 1 mps 760 mmHg 87%
    05:00 +14°C° 0 mm 1 mps 760 mmHg 87%
    06:00 +14°C° 0 mm 1 mps 760 mmHg 87%
    07:00 +15°C° 0 mm 1 mps 760 mmHg 87%
    08:00 +15°C° 0 mm 1 mps 760 mmHg 87%
    09:00 +16°C° 0 mm 1 mps 760 mmHg 84%
    10:00 +16°C° 0 mm 2 mps 760 mmHg 80%
    11:00 +17°C° 0 mm 2 mps 760 mmHg 76%
    12:00 +18°C° 0 mm 2 mps 760 mmHg 75%
    13:00 +18°C° 0 mm 2 mps 759 mmHg 74%
    14:00 +18°C° 0 mm 2 mps 759 mmHg 74%
    15:00 +17°C° 0.1 mm 2 mps 759 mmHg 78%
    16:00 +18°C° 0.1 mm 1 mps 759 mmHg 83%
    17:00 +16°C° 0.1 mm 1 mps 759 mmHg 88%
    18:00 +16°C° 0.1 mm 1 mps 759 mmHg 88%
    19:00 +16°C° 0.1 mm 1 mps 760 mmHg 89%
    20:00 +16°C° 0.1 mm 1 mps 760 mmHg 90%
    21:00 +16°C° 0.1 mm 2 mps 760 mmHg 90%
    22:00 +16°C° 0.1 mm 2 mps 760 mmHg 90%
    23:00 +16°C° 0.1 mm 2 mps 760 mmHg 89%

    Tomorrow, 17 December, Sunday

    Time Temperature Precipitation Wind Pressure Humidity
    00:00 +16°C° 0.3 mm 2 mps 760 mmHg 90%
    01:00 +16°C° 0.3 mm 2 mps 760 mmHg 91%
    02:00 +15°C° 0.3 mm 2 mps 760 mmHg 91%
    03:00 +15°C° 0.1 mm 2 mps 759 mmHg 91%
    04:00 +15°C° 0.1 mm 2 mps 759 mmHg 91%
    05:00 +15°C° 0.1 mm 2 mps 759 mmHg 91%
    06:00 +15°C° 0.1 mm 2 mps 759 mmHg 90%
    07:00 +15°C° 0.1 mm 2 mps 759 mmHg 90%
    08:00 +16°C° 0.1 mm 2 mps 759 mmHg 89%
    09:00 +16°C° 0.2 mm 3 mps 759 mmHg 86%
    10:00 +17°C° 0.2 mm 3 mps 759 mmHg 83%
    11:00 +18°C° 0.2 mm 4 mps 759 mmHg 79%
    12:00 +18°C° 0.3 mm 4 mps 758 mmHg 78%
    13:00 +18°C° 0.3 mm 4 mps 758 mmHg 78%
    14:00 +18°C° 0.3 mm 4 mps 758 mmHg 77%
    15:00 +18°C° 0.4 mm 4 mps 758 mmHg 80%
    16:00 +17°C° 0.4 mm 4 mps 758 mmHg 84%
    17:00 +16°C° 0.4 mm 3 mps 758 mmHg 87%
    18:00 +16°C° 0.5 mm 3 mps 758 mmHg 88%
    19:00 +16°C° 0.5 mm 3 mps 758 mmHg 88%
    20:00 +16°C° 0.5 mm 3 mps 758 mmHg 89%
    21:00 +16°C° 0.6 mm 3 mps 759 mmHg 90%
    22:00 +16°C° 0.6 mm 3 mps 759 mmHg 91%
    23:00 +16°C° 0.6 mm 3 mps 759 mmHg 92%

    Day after tomorrow, 18 December, Monday

    Time Temperature Precipitation Wind Pressure Humidity
    00:00 +16°C° 0.6 mm 3 mps 759 mmHg 92%
    01:00 +16°C° 0.6 mm 3 mps 758 mmHg 92%
    02:00 +16°C° 0.6 mm 3 mps 758 mmHg 93%
    03:00 +16°C° 0.4 mm 3 mps 758 mmHg 93%
    04:00 +16°C° 0.4 mm 3 mps 758 mmHg 93%
    05:00 +16°C° 0.4 mm 3 mps 758 mmHg 93%
    06:00 +16°C° 0.4 mm 3 mps 758 mmHg 93%
    07:00 +16°C° 0.4 mm 3 mps 758 mmHg 93%
    08:00 +16°C° 0.4 mm 3 mps 758 mmHg 92%
    09:00 +17°C° 0.6 mm 3 mps 758 mmHg 88%
    10:00 +17°C° 0.6 mm 3 mps 758 mmHg 84%
    11:00 +18°C° 0.6 mm 4 mps 758 mmHg 80%
    12:00 +18°C° 0.7 mm 4 mps 757 mmHg 79%
    13:00 +18°C° 0.7 mm 4 mps 757 mmHg 77%
    14:00 +17°C° 0.7 mm 5 mps 757 mmHg 76%
    15:00 +18°C° 0.6 mm 4 mps 757 mmHg 79%
    16:00 +17°C° 0.6 mm 4 mps 756 mmHg 83%
    17:00 +15°C° 0.6 mm 4 mps 756 mmHg 86%
    18:00 +15°C° 0.5 mm 4 mps 757 mmHg 86%
    19:00 +15°C° 0.5 mm 4 mps 757 mmHg 86%
    20:00 +14°C° 0.5 mm 4 mps 757 mmHg 87%
    21:00 +14°C° 0.3 mm 4 mps 757 mmHg 86%
    22:00 +14°C° 0.3 mm 4 mps 758 mmHg 85%
    23:00 +14°C° 0.3 mm 4 mps 758 mmHg 84%

    19 December, Tuesday

    Time Temperature Precipitation Wind Pressure Humidity
    00:00 +13°C° 0.3 mm 3 mps 758 mmHg 83%
    01:00 +13°C° 0.3 mm 3 mps 758 mmHg 82%
    02:00 +13°C° 0.3 mm 3 mps 758 mmHg 81%
    03:00 +12°C° 0.3 mm 3 mps 758 mmHg 80%
    04:00 +12°C° 0.3 mm 3 mps 759 mmHg 79%
    05:00 +13°C° 0.3 mm 2 mps 759 mmHg 78%
    06:00 +13°C° 0.1 mm 2 mps 759 mmHg 77%
    07:00 +13°C° 0.1 mm 2 mps 760 mmHg 76%
    08:00 +13°C° 0.1 mm 2 mps 760 mmHg 74%
    09:00 +14°C° 0 mm 2 mps 760 mmHg 68%
    10:00 +15°C° 0 mm 2 mps 760 mmHg 61%
    11:00 +16°C° 0 mm 2 mps 760 mmHg 55%
    12:00 +17°C° 0 mm 2 mps 760 mmHg 53%
    13:00 +17°C° 0 mm 2 mps 760 mmHg 50%
    14:00 +18°C° 0 mm 1 mps 759 mmHg 48%
    15:00 +16°C° 0 mm 1 mps 760 mmHg 53%
    16:00 +15°C° 0 mm 1 mps 760 mmHg 57%
    17:00 +14°C° 0 mm 1 mps 760 mmHg 62%
    18:00 +13°C° 0 mm 2 mps 760 mmHg 63%
    19:00 +13°C° 0 mm 2 mps 761 mmHg 64%
    20:00 +12°C° 0 mm 2 mps 761 mmHg 64%
    21:00 +12°C° 0 mm 2 mps 761 mmHg 65%
    22:00 +12°C° 0 mm 2 mps 761 mmHg 65%
    23:00 +12°C° 0 mm 2 mps 761 mmHg 66%

    20 December, Wednesday

    Time Temperature Precipitation Wind Pressure Humidity
    00:00 +10°C° 0 mm 2 mps 761 mmHg 66%
    01:00 +10°C° 0 mm 3 mps 762 mmHg 66%
    02:00 +10°C° 0 mm 3 mps 762 mmHg 66%
    03:00 +10°C° 0 mm 3 mps 761 mmHg 65%
    04:00 +10°C° 0 mm 3 mps 761 mmHg 65%
    05:00 +10°C° 0 mm 2 mps 761 mmHg 65%
    06:00 +10°C° 0 mm 3 mps 762 mmHg 65%
    07:00 +10°C° 0 mm 3 mps 762 mmHg 64%
    08:00 +10°C° 0 mm 3 mps 763 mmHg 64%
    09:00 +12°C° 0 mm 3 mps 762 mmHg 60%
    10:00 +13°C° 0 mm 3 mps 762 mmHg 56%
    11:00 +15°C° 0 mm 2 mps 762 mmHg 52%
    12:00 +15°C° 0 mm 2 mps 762 mmHg 51%
    13:00 +16°C° 0 mm 2 mps 761 mmHg 51%
    14:00 +16°C° 0 mm 2 mps 761 mmHg 50%
    15:00 +15°C° 0 mm 2 mps 761 mmHg 55%
    16:00 +14°C° 0 mm 2 mps 761 mmHg 60%
    17:00 +13°C° 0 mm 2 mps 762 mmHg 64%
    18:00 +12°C° 0 mm 2 mps 762 mmHg 65%
    19:00 +12°C° 0 mm 2 mps 762 mmHg 66%
    20:00 +10°C° 0 mm 2 mps 763 mmHg 67%
    21:00 +10°C° 0 mm 2 mps 763 mmHg 67%
    22:00 +10°C° 0 mm 2 mps 763 mmHg 68%
    23:00 +10°C° 0 mm 2 mps 763 mmHg 68%

    21 December, Thursday

    Time Temperature Precipitation Wind Pressure Humidity
    00:00 +10°C° 0 mm 3 mps 763 mmHg 68%
    01:00 +9°C° 0 mm 3 mps 763 mmHg 68%
    02:00 +9°C° 0 mm 3 mps 763 mmHg 68%
    03:00 +9°C° 0 mm 3 mps 763 mmHg 69%
    04:00 +9°C° 0 mm 3 mps 763 mmHg 69%
    05:00 +9°C° 0 mm 3 mps 762 mmHg 69%
    06:00 +9°C° 0 mm 3 mps 763 mmHg 68%
    07:00 +9°C° 0 mm 3 mps 763 mmHg 67%
    08:00 +9°C° 0 mm 3 mps 763 mmHg 66%
    09:00 +11°C° 0 mm 3 mps 763 mmHg 60%
    10:00 +12°C° 0 mm 3 mps 763 mmHg 54%
    11:00 +14°C° 0 mm 3 mps 763 mmHg 48%
    12:00 +14°C° 0 mm 3 mps 762 mmHg 46%
    13:00 +14°C° 0 mm 3 mps 762 mmHg 43%
    14:00 +16°C° 0 mm 3 mps 761 mmHg 41%
    15:00 +13°C° 0 mm 3 mps 761 mmHg 45%
    16:00 +12°C° 0 mm 4 mps 761 mmHg 49%
    17:00 +10°C° 0 mm 4 mps 761 mmHg 53%
    18:00 +10°C° 0 mm 4 mps 762 mmHg 54%
    19:00 +8°C° 0 mm 4 mps 762 mmHg 55%
    20:00 +7°C° 0 mm 4 mps 763 mmHg 56%
    21:00 +7°C° 0 mm 4 mps 763 mmHg 56%
    22:00 +7°C° 0 mm 4 mps 763 mmHg 55%
    23:00 +7°C° 0 mm 4 mps 763 mmHg 55%
    Show more